Find GuoyuanV9

NORAD ID: 44538 Int'l Des: 2019-060 Owner: ZHUORB Country: CN operational
LEOCIRCULARRETROGRADESSO

当前视图

正在加载3D地球...

关于 GuoyuanV9

正在加载描述...

即将过境

Passes for default location (London). Set your location on the main map for personalized predictions.

高度历史

Loading altitude history...

两行轨道根数

1 44538U 19060E 26151.17221911 .00037114 00000-0 69167-3 0 9997
2 44538 97.5368 300.3051 0007212 12.0387 348.1034 15.48712082373441
Epoch: May 31, 2026 • Age: 7 hours

当前状态

高度 446.6 km
速度 7.64 km/s
星下点 -59.47°S, 48.21°E
发射日期 Sep 19, 2019
运行时间 6.6 years
类型 other

技术详情

分类 Payload
质量 69.00 kg
干质量 69.00 kg
总质量 69.00 kg
长度 0.50 m
直径 0.40 m
跨度 1.00 m
形状 Box
制造商 HARB
平台类型 OHS-1
阶段状态 In Orbit
所有者/国家 ZHUORB/CN

Most Searched